Content
SEND FEEDBACK

Daily
Averages
Monthly
Summary
United States of America

ELKINS, WEST VIRGINIA


Home > North America > United States > West Virginia
Elevation: 1981 feet     Latitude: 38 53N     Longitude: 079 51W

WEATHER
 
SELECT A DAY
Number of Records: 254,687;   Date Range: 1/1/95 - 11/24/14
 
SHARE

PRINT THIS DATA

[ ← Previous Day ]
WEATHER ALMANAC - FEBRUARY 5, 2013
[ Next Day → ]
[ °C ]   °F
Weather ElementAverageHighLow
Temperature35.5 °F37.4 °F (1:12 am)33.1 °F (7:51 am)
Dewpoint31.5 °F33.8 °F (10:46 am)30 °F (4:51 pm)
Humidity85.8 %96 % (8:51 am)75 % (1:12 am)
Barometer29.87 in29.96 in (10:51 pm)29.81 in (2:27 am)
Wind Speed6 mph13.8 mph (2:51 am)
Wind Gust25.3 mph (3:03 am)
Weather ElementAverage
Visibility6.9 mi
Wind DirectionSSE (162.3 °)

Weather ElementTotal
Precipitation0.19 in
Heating Degree Days29.8 (Base 65)
Averaged from 43 records on February 5, 2013
WEATHER CONDITIONS BREAKOUT
WIND DIRECTION BREAKOUT
WEATHER BY HOUR - FEBRUARY 5, 2013
[ °C ]   °F
Local TimeTemperatureDewpointHumidityBarometerVisibilityWind DirectionWind SpeedGust SpeedPrecipitationEventsConditions
1:12 AM37.4 °F30.2 °F75 %29.82 in10.0 miSW (220°)9.2 mph21.9 mph0.00 inOvercast
1:51 AM37.0 °F32.0 °F82 %29.88 in7.0 miWSW (240°)9.2 mph19.6 mph0.00 inOvercast
2:27 AM37.4 °F32.0 °F81 %29.81 in10.0 miSW (230°)12.7 mph20.7 mph0.00 inOvercast
2:51 AM37.4 °F32.0 °F81 %29.81 in9.0 miWSW (250°)13.8 mph21.9 mphRainLight Rain
3:03 AM37.4 °F32.0 °F81 %29.81 in9.0 miWSW (240°)11.5 mph25.3 mph0.00 inOvercast
3:51 AM37.4 °F32.0 °F81 %29.81 in8.0 miWSW (240°)8.1 mphOvercast
4:51 AM36.0 °F32.0 °F86 %29.87 in7.0 miWSW (250°)11.5 mph17.3 mph0.01 inRainLight Rain
5:51 AM36.0 °F32.0 °F86 %29.88 in7.0 miVariable6.9 mph0.00 inOvercast
6:51 AM33.8 °F30.2 °F87 %29.83 in6.0 miNW (310°)11.5 mphOvercast
7:43 AM33.8 °F32.0 °F93 %29.85 in3.0 miNNE (20°)4.6 mph0.01 inRainLight Rain
7:51 AM33.1 °F30.9 °F92 %29.92 in5.0 miCalm0.01 inOvercast
8:51 AM33.1 °F32.0 °F96 %29.91 in3.0 miCalm0.00 inOvercast
9:51 AM34.0 °F32.0 °F92 %29.92 in4.0 miCalm0.00 inRainLight Rain
10:46 AM35.6 °F33.8 °F93 %29.84 in10.0 miSouth (170°)3.5 mph0.01 inOvercast
10:51 AM35.1 °F33.1 °F92 %29.91 in10.0 miSSW (210°)3.5 mph0.01 inOvercast
11:06 AM35.6 °F32.0 °F87 %29.85 in10.0 miSSW (210°)3.5 mphOvercast
11:40 AM35.6 °F33.8 °F93 %29.84 in7.0 miSSW (210°)4.6 mph0.00 inOvercast
11:51 AM35.6 °F33.8 °F93 %29.84 in5.0 miVariable4.6 mphRainLight Rain
12:14 PM37.4 °F33.8 °F87 %29.83 in9.0 miSSW (210°)4.6 mph0.00 inRainLight Rain
12:23 PM37.4 °F33.8 °F87 %29.83 in9.0 miSouth (190°)5.8 mph0.00 inRainLight Rain
12:51 PM37.0 °F33.1 °F86 %29.87 in6.0 miSSW (210°)3.5 mph0.00 inRainLight Rain
1:51 PM37.0 °F33.1 °F86 %29.87 in5.0 miWest (260°)8.1 mph0.01 inRainLight Rain
2:51 PM37.0 °F32.0 °F82 %29.88 in7.0 miWSW (250°)12.7 mph21.9 mph0.01 inRainLight Rain
3:51 PM37.0 °F30.9 °F79 %29.90 in10.0 miWSW (240°)13.8 mph19.6 mph0.00 inRainLight Rain
4:36 PM37.4 °F30.2 °F75 %29.84 in10.0 miWSW (240°)11.5 mph0.00 inOvercast
4:51 PM37.0 °F30.0 °F76 %29.90 in10.0 miWSW (250°)9.2 mph0.00 inOvercast
5:51 PM37.0 °F30.0 °F76 %29.91 in10.0 miWest (260°)11.5 mph0.00 inRainLight Rain
6:34 PM35.6 °F30.2 °F81 %29.86 in10.0 miWest (260°)5.8 mph0.00 inRainLight Rain
6:51 PM36.0 °F30.9 °F82 %29.92 in10.0 miWest (260°)3.5 mph0.01 inRainLight Rain
7:51 PM34.0 °F32.0 °F92 %29.93 in8.0 miCalm0.02 inRainLight Rain
8:06 PM33.8 °F32.0 °F93 %29.87 in8.0 miCalm0.00 inRainLight Rain
8:23 PM33.8 °F30.2 °F87 %29.86 in6.0 miNorth (10°)3.5 mph0.00 inSnowLight Snow
8:30 PM33.8 °F30.2 °F87 %29.87 in4.0 miNNW (340°)4.6 mph0.01 inSnowLight Snow
8:40 PM33.8 °F30.2 °F87 %29.87 in4.0 miNorth (10°)3.5 mph0.01 inSnowLight Snow
8:51 PM33.1 °F30.9 °F92 %29.94 in2.0 miNorth (360°)5.8 mph0.01 inSnowLight Snow
8:54 PM33.8 °F30.2 °F87 %29.87 in1.5 miNorth (350°)4.6 mph0.00 inSnowLight Snow
9:08 PM33.8 °F30.2 °F87 %29.87 in1.8 miVariable3.5 mph0.01 inSnowLight Snow
9:18 PM33.8 °F30.2 °F87 %29.89 in1.2 miCalm0.02 inSnowLight Snow
9:51 PM33.8 °F30.2 °F87 %29.90 in1.2 miCalmSnowLight Snow
10:02 PM33.8 °F30.2 °F87 %29.90 in3.0 miVariable4.6 mph0.00 inSnowLight Snow
10:51 PM35.1 °F30.9 °F85 %29.96 in8.0 miVariable5.8 mph0.03 inRainLight Rain
11:30 PM35.6 °F30.2 °F81 %29.89 in10.0 miWSW (250°)5.8 mph0.00 inOvercast
11:51 PM37.0 °F32.0 °F82 %29.95 in10.0 miSW (230°)8.1 mph0.00 inOvercast
Hourly data recorded from KEKN, located miles away from Elkins, West Virginia







STORIES FROM OUR PARTNERS